| time (UTC) | temp F | wind direction | speed knots | gust knots | rain 1hr in | rain 24hr in | rain mn in | humidity % | barometer mb |
| 20260504202114 | 56 | 242 | 2.6 | 6.1 | 0.05 | 0.06 | 0.06 | 88 | 1007.5 |
| 20260504201112 | 56 | 196 | 5.2 | 11.3 | 0.01 | 0.02 | 0.02 | 87 | 1007.7 |
| 20260504200109 | 57 | 192 | 5.2 | 13.0 | 0.01 | 0.02 | 0.02 | 84 | 1007.7 |
| 20260504195107 | 57 | 151 | 6.1 | 13.0 | 0.01 | 0.02 | 0.02 | 86 | 1007.4 |
| 20260504194104 | 59 | 198 | 3.5 | 7.8 | 0.00 | 0.01 | 0.01 | 89 | 1007.1 |
| 20260504193102 | 60 | 147 | 2.6 | 5.2 | 0.00 | 0.01 | 0.01 | 88 | 1006.8 |
| 20260504192059 | 60 | 144 | 3.5 | 7.8 | 0.00 | 0.01 | 0.01 | 87 | 1006.8 |
| 20260504191057 | 60 | 104 | 0.9 | 3.5 | 0.00 | 0.01 | 0.01 | 87 | 1006.7 |
| 20260504190054 | 61 | 79 | 1.7 | 3.5 | 0.00 | 0.01 | 0.01 | 86 | 1006.6 |
| 20260504185051 | 61 | 117 | 0.9 | 3.5 | 0.00 | 0.01 | 0.01 | 85 | 1006.6 |
| 20260504184049 | 61 | 82 | 1.7 | 5.2 | 0.00 | 0.01 | 0.01 | 85 | 1006.5 |
| 20260504183046 | 62 | 100 | 1.7 | 3.5 | 0.00 | 0.01 | 0.01 | 84 | 1006.4 |
| 20260504182043 | 62 | 125 | 0.9 | 3.5 | 0.00 | 0.01 | 0.01 | 83 | 1006.1 |
| 20260504181040 | 62 | 123 | 0.9 | 3.5 | 0.00 | 0.01 | 0.01 | 82 | 1005.9 |
| 20260504180037 | 62 | 164 | 0.9 | 3.5 | 0.00 | 0.01 | 0.01 | 82 | 1005.9 |
| 20260504175035 | 62 | 78 | 0.9 | 5.2 | 0.00 | 0.01 | 0.01 | 82 | 1005.9 |
| 20260504174032 | 62 | 39 | 2.6 | 5.2 | 0.00 | 0.01 | 0.01 | 82 | 1006.1 |
| 20260504173029 | 62 | 347 | 2.6 | 6.1 | 0.00 | 0.01 | 0.01 | 82 | 1006.1 |
| 20260504172027 | 62 | 311 | 2.6 | 5.2 | 0.00 | 0.01 | 0.01 | 82 | 1006.1 |
| 20260504171024 | 62 | 22 | 2.6 | 7.0 | 0.00 | 0.01 | 0.01 | 81 | 1006.2 |
| 20260504160106 | 63 | 45 | 0.9 | 3.5 | 0.00 | 0.01 | 0.01 | 82 | 1006.7 |
| 20260504151053 | 62 | 68 | 0.0 | 1.7 | 0.01 | 0.01 | 0.01 | 84 | 1006.7 |
| 20260504141036 | 63 | 207 | 0.9 | 3.5 | 0.00 | 0.00 | 0.00 | 81 | 1007.3 |
| 20260504081102 | 65 | 101 | 0.9 | 3.5 | 0.00 | 0.00 | 0.00 | 72 | 1008.1 |
| 20260504050112 | 57 | 215 | 1.7 | 3.5 | 0.00 | 0.00 | 0.00 | 90 | 1008.5 |
| 20260504045109 | 57 | 216 | 0.9 | 3.5 | 0.00 | 0.00 | 0.00 | 90 | 1008.5 |
| 20260504044106 | 57 | 211 | 1.7 | 3.5 | 0.00 | 0.00 | 0.00 | 90 | 1008.6 |
| 20260504043104 | 57 | 175 | 1.7 | 3.5 | 0.00 | 0.00 | 0.00 | 89 | 1008.5 |
| 20260504042101 | 58 | 234 | 0.9 | 1.7 | 0.00 | 0.00 | 0.00 | 89 | 1008.4 |
| 20260504041058 | 58 | 158 | 0.0 | 1.7 | 0.00 | 0.00 | 0.00 | 89 | 1008.5 |
| 20260504040056 | 58 | 218 | 0.0 | 1.7 | 0.00 | 0.00 | 0.00 | 89 | 1008.6 |
| 20260504035053 | 57 | 0.0 | 0.0 | 0.00 | 0.00 | 0.00 | 89 | 1008.5 | |
| 20260504034050 | 57 | 0.0 | 0.0 | 0.00 | 0.00 | 0.00 | 88 | 1008.7 | |
| 20260504033048 | 58 | 240 | 0.0 | 1.7 | 0.00 | 0.00 | 0.00 | 88 | 1008.6 |
| 20260504032045 | 58 | 162 | 0.9 | 1.7 | 0.00 | 0.00 | 0.00 | 88 | 1008.6 |
| 20260504031043 | 58 | 0.0 | 0.0 | 0.00 | 0.00 | 0.00 | 88 | 1008.7 | |
| 20260504030040 | 58 | 0.0 | 0.0 | 0.00 | 0.00 | 0.00 | 88 | 1009.0 | |
| 20260504025037 | 58 | 0.0 | 0.0 | 0.00 | 0.00 | 0.00 | 88 | 1008.8 | |
| 20260504024034 | 58 | 0.0 | 1.7 | 0.00 | 0.00 | 0.00 | 88 | 1008.8 | |
| 20260504023032 | 58 | 0.0 | 0.0 | 0.00 | 0.00 | 0.00 | 88 | 1008.7 | |
| 20260504022029 | 58 | 171 | 0.9 | 1.7 | 0.00 | 0.00 | 0.00 | 88 | 1008.7 |
| 20260504021027 | 58 | 155 | 1.7 | 3.5 | 0.00 | 0.00 | 0.00 | 88 | 1008.9 |
| 20260504020024 | 58 | 132 | 0.9 | 1.7 | 0.00 | 0.00 | 0.00 | 89 | 1009.1 |
| 20260504015021 | 58 | 0 | 0.0 | 1.7 | 0.00 | 0.00 | 0.00 | 89 | 1009.0 |
| 20260504014019 | 58 | 0.0 | 0.0 | 0.00 | 0.00 | 0.00 | 89 | 1009.0 | |
| 20260504013016 | 57 | 0.0 | 0.0 | 0.00 | 0.00 | 0.00 | 90 | 1009.0 | |
| 20260504012114 | 58 | 210 | 0.9 | 1.7 | 0.00 | 0.00 | 0.00 | 90 | 1009.2 |
| 20260504011111 | 57 | 270 | 0.0 | 1.7 | 0.00 | 0.00 | 0.00 | 90 | 1009.2 |
| 20260504010109 | 57 | 0.0 | 1.7 | 0.00 | 0.00 | 0.00 | 91 | 1009.5 | |
| 20260504005107 | 57 | 303 | 0.0 | 1.7 | 0.00 | 0.00 | 0.00 | 91 | 1009.4 |
| 20260504004104 | 57 | 293 | 0.0 | 1.7 | 0.00 | 0.00 | 0.00 | 91 | 1009.6 |
| 20260504003101 | 57 | 281 | 0.9 | 3.5 | 0.00 | 0.00 | 0.00 | 92 | 1009.6 |
| 20260504002058 | 57 | 300 | 1.7 | 3.5 | 0.00 | 0.00 | 0.00 | 92 | 1009.8 |
| 20260504001056 | 57 | 280 | 2.6 | 3.5 | 0.00 | 0.00 | 0.00 | 92 | 1009.8 |
| 20260504000053 | 57 | 299 | 1.7 | 3.5 | 0.00 | 0.00 | 0.00 | 91 | 1009.8 |
| 20260503235050 | 57 | 309 | 2.6 | 5.2 | 0.00 | 0.00 | 0.00 | 91 | 1009.8 |
| 20260503234048 | 57 | 312 | 1.7 | 3.5 | 0.00 | 0.00 | 0.00 | 92 | 1010.0 |
| 20260503233045 | 57 | 312 | 0.9 | 3.5 | 0.00 | 0.00 | 0.00 | 92 | 1009.9 |
| 20260503232043 | 56 | 12 | 1.7 | 3.5 | 0.00 | 0.00 | 0.00 | 92 | 1010.3 |
| 20260503231040 | 56 | 11 | 1.7 | 3.5 | 0.00 | 0.00 | 0.00 | 92 | 1010.1 |
| 20260503230038 | 56 | 323 | 0.9 | 1.7 | 0.00 | 0.00 | 0.00 | 92 | 1010.2 |
| 20260503225036 | 56 | 351 | 1.7 | 3.5 | 0.00 | 0.00 | 0.00 | 92 | 1010.0 |
| 20260503224033 | 56 | 339 | 1.7 | 3.5 | 0.00 | 0.00 | 0.00 | 93 | 1010.1 |
| 20260503223031 | 56 | 11 | 1.7 | 3.5 | 0.00 | 0.00 | 0.00 | 93 | 1010.1 |
| 20260503222028 | 56 | 342 | 1.7 | 3.5 | 0.00 | 0.00 | 0.00 | 94 | 1010.1 |
| 20260503221026 | 56 | 307 | 3.5 | 6.1 | 0.00 | 0.00 | 0.00 | 94 | 1010.1 |
| 20260503220023 | 56 | 305 | 4.3 | 7.0 | 0.00 | 0.00 | 0.00 | 94 | 1010.1 |
| 20260503215020 | 56 | 320 | 3.5 | 7.0 | 0.00 | 0.00 | 0.00 | 93 | 1010.3 |
| 20260503214018 | 56 | 352 | 3.5 | 7.8 | 0.00 | 0.00 | 0.00 | 92 | 1010.2 |
| 20260503213015 | 57 | 329 | 2.6 | 6.1 | 0.00 | 0.00 | 0.00 | 91 | 1010.4 |
| 20260503212113 | 57 | 331 | 4.3 | 9.6 | 0.00 | 0.00 | 0.00 | 90 | 1010.3 |
| 20260503211110 | 58 | 26 | 2.6 | 7.0 | 0.00 | 0.00 | 0.00 | 89 | 1010.6 |
| 20260503210108 | 58 | 324 | 1.7 | 3.5 | 0.00 | 0.00 | 0.00 | 88 | 1010.5 |
| 20260503205104 | 58 | 2 | 2.6 | 5.2 | 0.00 | 0.00 | 0.00 | 87 | 1010.4 |
| 20260503204102 | 58 | 330 | 2.6 | 3.5 | 0.00 | 0.00 | 0.00 | 87 | 1010.5 |
| 20260503203059 | 58 | 328 | 2.6 | 7.0 | 0.00 | 0.00 | 0.00 | 88 | 1010.6 |